{"data":{"norad_id":62629,"intl_designator":"2025-009W","name":"FLOCK 4G-11","alt_names":[],"object_type":"PAYLOAD","status":"ACTIVE","operator":null,"country":"US","launch_date":"2025-01-14","launch_site_code":"AFWTR","launch_vehicle":null,"mission":null,"orbit_class":"UNKNOWN","rcs_meters":null,"size_class":null,"mass_kg":null,"dimensions":null,"purposes":["earth_obs"],"wikipedia_slug":null,"has_3d_model":false,"image_url":null,"decayed_at":null,"tle_current":{"epoch":"2026-05-25T04:53:09.713760Z","epoch_age_seconds":54296,"freshness":"FRESH","line1":"1 62629U 25009W   26145.20358465  .00010315  00000+0  37108-3 0  9993","line2":"2 62629  97.3923 226.7793 0003799  67.3319 292.8323 15.28793025 75400","mean_motion":15.28793025,"eccentricity":0.0003799,"inclination_deg":97.3923,"raan_deg":226.7793,"arg_perigee_deg":67.3319,"mean_anomaly_deg":292.8323,"bstar":0.00037108,"rev_number":7540,"period_min":94.191952504493,"perigee_km":476.81407906418,"apogee_km":482.02445031409,"semimajor_km":6857.5562646891,"source":"CELESTRAK","updated_at":"2026-05-25T13:38:13.336850Z"}}}